Zurück zum Katalog

STARLINK-3116

AktivKommunikationVLEO
NORAD 49146·PAYLOAD·🇺🇸 United States

Gestartet Sep 14, 2021 von Vandenberg Space Force Base

Loading…

Nächste Überflüge (nächste 24 Stunden)

TLE

AktuellSource: CelesTrak SupGP

Epoche: Sep 14, 2026, 20:43 UTC

1 49146C 21082S   26257.86368056 -.00046854  00000+0 -40091-2 0  2572
2 49146  70.0014 158.8733 0002690 269.8374 225.6684 14.97548691    17

Verfolge STARLINK-3116 in Echtzeit mit AllMySat

Download on the App Store